Torna al catalogo

STARLINK-36969

AttivoComunicazioniVLEO
NORAD 68167·PAYLOAD·🇺🇸 United States

Lanciato Mar 14, 2026 da Vandenberg Space Force Base

Loading…

Prossimi Passaggi (prossime 24 ore)

TLE

AggiornatoSource: CelesTrak SupGP

Epoca: Sep 14, 2026, 23:01 UTC

1 68167C 26050A   26257.95951389 -.00000747  00000+0 -22084-4 0  2578
2 68167  53.1575 103.5404 0001216  86.5005  95.7765 15.34384950    19

Traccia STARLINK-36969 in tempo reale con AllMySat

Download on the App Store